COSMOS 2491 DEB, 45129

Orbit data source: Space-Track

COSMOS 2491 DEB, 45129 is space debris in LEO originally from a launch on Wed, 25 Dec 2013 UTC launched from the Plesetsk Missile And Space Complex (PKMTR). Debris objects in space refer to the collection of defunct objects orbiting the Earth. Examples of debris include non-operational satellites, rocket bodies, and fragments generated from explosions, collisions, or faulty payload assembly.

Loading next visibility...
Identifier
45129, 2013-076AB
Orbit
LEO
Last TLE update
1 day ago
Origin
Manufacturer
TsNIIKhM
Mission
Spacecraft
Bus & Motor
Unknown
Mass
Unknown
Launch date (UTC)
2013-12-25 (11 years ago)
Launch vehicle
Unknown
Launch site
Plesetsk Missile And Space Complex (PKMTR)
Object type
Payload
Rocket body
Debris
Shape & HBR
Unknown
Radar Cross Section
Small (<0.1 m²)

Expand to show TLE details & history

TLE from 1 day ago
0 COSMOS 2491 DEB
1 45129U 13076AB  25127.96746849  .00002612  00000-0  11935-1 0  9999
2 45129  82.4285  17.5612 0262067 351.6240   8.0519 12.66955333242923
Epoch: 2025-05-07T23:13Z
Definitive object data (Epoch: 2025-05-07T23:13:09.277Z)
Latitude
-0.00007°
Longitude
163.22782°
Altitude
1,195.493 km
Speed
7.35 km/s
True Right ascension
01h 10m 14s
True Declination
0° 00' 00"
Sunlit
Object was in daylight at TLE epoch
Visualization TLE readout
Latitude
-72.07036°
Longitude
6.43705°
Altitude
1,432.959 km
Speed
7.139 km/s
Apparent Right ascension
06h 35m 26s
Apparent Declination
-74° 32' 01"
Sunlit
Object is in partial shadow
Visualization observer readout
Local Sidereal Time
16:56:40
Azimuth
190.804° SSW
Elevation
-53.539°
Doppler factor
1
Orbital elements
Apogee altitude
1,595.306 km
Perigee altitude
1,188.063 km
Semi-major axis
7,769.821 km
Eccentricity
0.0262067
Inclination
82.4285°
RAAN
17.5612°
Arg. of periapsis
351.624°
True anomaly
8.48662°
Mean anomaly
8.0519°
Eccentric anomaly
8.26782°
Mean motion
3.16903 °/min
BSTAR
0.011935
Orbital period
113.6 mins
Loading maneuver chart data...
Loading SW <> Apogee altitude chart data...
Loading historical data...
Loading historical data...
Loading historical data...
Loading historical data...
Loading historical data...
Loading historical data...
Loading historical data...

COSMOS 2491 DEB Visibility forecast

Observer location: undefined°, undefined°

Span
Click to sort rows by Start time (UTC) header in descending order
Start Az.
Max El. time (UTC)
Max El. Az.
Max El.
End time (UTC)
End Az.
13 mins2025-05-09 17:01:27.032Z175.593° S2025-05-09 17:06:27.032Z123.824° SE43.631°2025-05-09 17:14:27.032Z11.439° NNE
9 mins2025-05-09 18:58:27.032Z259.14° W2025-05-09 19:02:27.032Z295.675° NW18.845°2025-05-09 19:07:27.032Z337.573° N
14 mins2025-05-10 02:59:27.032Z14.472° NNE2025-05-10 03:06:27.032Z74.691° E28.286°2025-05-10 03:13:27.032Z128.594° SE
16 mins2025-05-10 04:53:27.032Z342.773° N2025-05-10 05:01:27.032Z259.758° W40.474°2025-05-10 05:09:27.032Z194.259° SSW
|